Flag for Canada Weather past 2 weeks in Burlington, Ontario, Canada

Now
22 °F

Cold.


Feels Like: 12 °F
Forecast: 3 / 22 °F
Wind: 9 mph from Southwest

Location: Burlington Piers

Current Time: Mar 6, 2015 at 1:30:44 PM

Latest Report: Mar 6, 2015 at 1:00 PM


Visibility: N/A

Pressure: 30.44 "Hg

Humidity: 54%

Dew point: 8 °F

Location of BurlingtonLocation

Historic Weather in Burlington — Graph

°F

Burlington temperature yesterday

Maximum temperature yesterday: 18 °F (at 12:00 AM)
Minimum temperature yesterday: 6 °F (at 8:00 AM)
Average temperature yesterday: 11 °F

Past Weeks' High & Low Weather Summary

 TemperatureHumidityPressure
High36 °F (Mar 3, 11:00 PM)95% (Mar 3, 6:00 PM)30.81 "Hg (Mar 3, 6:00 PM)
Low-9 °F (Feb 20, 6:00 AM)35% (Feb 20, 3:00 PM)29.57 "Hg (Mar 3, 7:00 PM)
Average13 °F65%30.25 "Hg
* Reported Feb 19 12:00 Noon — Mar 6 12:00 Noon, Burlington, Weather by CustomWeather, © 2015

Note: Actual official high and low records may vary slightly from our data, if they occured in-between our weather recording intervals... More about our weather records

Advertising

Burlington weather history for previous 24 hours

 ConditionsComfort  
Time TempWeatherWind HumidityBarometerVisibility
12:00 PM
Fri, Mar 6
18 °FCold.15 mph53%30.47 "HgN/A
11:00 AM16 °FCold.10 mph59%30.49 "HgN/A
10:00 AM13 °FCold.7 mph62%30.51 "HgN/A
9:00 AM8 °FFrigid.3 mph66%30.53 "HgN/A
8:00 AM5 °FFrigid.5 mph69%30.54 "HgN/A
7:00 AM4 °FFrigid.7 mph73%30.53 "HgN/A
6:00 AM3 °FFrigid.7 mph74%30.53 "HgN/A
5:00 AM4 °FFrigid.8 mph73%30.52 "HgN/A
4:00 AM6 °FFrigid.7 mph70%30.52 "HgN/A
3:00 AM4 °FFrigid.7 mph76%30.53 "HgN/A
2:00 AM5 °FFrigid.5 mph82%30.54 "HgN/A
1:00 AM5 °FFrigid.3 mph75%30.53 "HgN/A
12:00 AM8 °FFrigid.5 mph63%30.54 "HgN/A
11:00 PM
Thu, Mar 5
7 °FFrigid.7 mph63%30.54 "HgN/A
10:00 PM9 °FFrigid.3 mph69%30.53 "HgN/A
9:00 PM10 °FFrigid.6 mph53%30.51 "HgN/A
8:00 PM11 °FCold.7 mph52%30.49 "HgN/A
7:00 PM12 °FCold.6 mph48%30.47 "HgN/A
6:00 PM14 °FCold.8 mph45%30.42 "HgN/A
5:00 PM15 °FCold.8 mph43%30.40 "HgN/A
4:00 PM16 °FCold.7 mph43%30.38 "HgN/A
3:00 PM15 °FCold.6 mph43%30.36 "HgN/A
2:00 PM14 °FCold.6 mph36%30.36 "HgN/A
1:00 PM13 °FCold.6 mph38%30.37 "HgN/A
Weather by CustomWeather, © 2015

See weather overviewHow to use our weather pages